Time,TemperatureF,DewpointF,PressureIn,WindDirection,WindDirectionDegrees,WindSpeedMPH,WindSpeedGustMPH,Humidity,HourlyPrecipIn,Conditions,Clouds,dailyrainin,SoftwareType,DateUTC
2013-01-19 00:04:00,0.0,-4.0,30.58,NE,54,0.0,0.0,84,0.00,,,0.00,,2013-01-19 05:04:00,
2013-01-19 00:13:00,0.0,-4.0,30.58,NE,54,0.0,0.0,84,0.00,,,0.00,,2013-01-19 05:13:00,
2013-01-19 00:23:00,0.0,-3.0,30.57,NE,47,0.0,0.0,85,0.00,,,0.00,,2013-01-19 05:23:00,
2013-01-19 00:33:00,0.0,-4.0,30.57,NE,46,0.0,0.0,84,0.00,,,0.00,,2013-01-19 05:33:00,
2013-01-19 00:43:00,0.0,-4.0,30.57,NE,46,0.0,0.0,84,0.00,,,0.00,,2013-01-19 05:43:00,
2013-01-19 00:53:00,2.0,-2.0,30.57,ENE,58,0.0,0.0,82,0.00,,,0.00,,2013-01-19 05:53:00,
2013-01-19 01:03:00,2.0,-2.0,30.57,ENE,58,0.0,0.0,82,0.00,,,0.00,,2013-01-19 06:03:00,
2013-01-19 01:12:00,2.0,-2.0,30.57,ENE,58,0.0,0.0,82,0.00,,,0.00,,2013-01-19 06:12:00,
2013-01-19 01:23:00,3.0,-1.0,30.56,NE,46,0.0,0.0,82,0.00,,,0.00,,2013-01-19 06:23:00,
2013-01-19 01:33:00,4.0,-1.0,30.56,North,354,0.0,0.0,81,0.00,,,0.00,,2013-01-19 06:33:00,
2013-01-19 01:43:00,4.0,-1.0,30.56,North,354,0.0,0.0,81,0.00,,,0.00,,2013-01-19 06:43:00,
2013-01-19 01:52:00,4.0,0.0,30.55,North,354,0.0,0.0,82,0.00,,,0.00,,2013-01-19 06:52:00,
2013-01-19 02:02:00,5.0,1.0,30.55,NW,325,0.0,0.0,83,0.00,,,0.00,,2013-01-19 07:02:00,
2013-01-19 02:12:00,5.0,1.0,30.55,NW,325,0.0,0.0,83,0.00,,,0.00,,2013-01-19 07:12:00,
2013-01-19 02:22:00,5.0,1.0,30.54,NNW,335,0.0,0.0,84,0.00,,,0.00,,2013-01-19 07:22:00,
2013-01-19 02:33:00,5.0,2.0,30.54,ENE,65,0.0,0.0,85,0.00,,,0.00,,2013-01-19 07:33:00,
2013-01-19 02:43:00,5.0,2.0,30.54,ENE,65,0.0,0.0,85,0.00,,,0.00,,2013-01-19 07:43:00,
2013-01-19 02:52:00,6.0,2.0,30.53,ENE,63,0.0,0.0,85,0.00,,,0.00,,2013-01-19 07:52:00,
2013-01-19 03:02:00,6.0,3.0,30.52,ENE,72,0.0,1.0,86,0.00,,,0.00,,2013-01-19 08:02:00,
2013-01-19 03:12:00,6.0,3.0,30.52,ENE,72,0.0,1.0,86,0.00,,,0.00,,2013-01-19 08:12:00,
2013-01-19 03:22:00,7.0,4.0,30.51,NNW,329,0.0,0.0,86,0.00,,,0.00,,2013-01-19 08:22:00,
2013-01-19 03:33:00,7.0,4.0,30.50,NNW,329,0.0,0.0,86,0.00,,,0.00,,2013-01-19 08:33:00,
2013-01-19 03:43:00,7.0,4.0,30.50,NNW,329,0.0,0.0,86,0.00,,,0.00,,2013-01-19 08:43:00,
2013-01-19 03:52:00,8.0,5.0,30.49,NNW,329,0.0,0.0,86,0.00,,,0.00,,2013-01-19 08:52:00,
2013-01-19 04:02:00,8.0,5.0,30.47,NNW,328,0.0,0.0,86,0.00,,,0.00,,2013-01-19 09:02:00,
2013-01-19 04:12:00,8.0,5.0,30.47,NNW,328,0.0,0.0,86,0.00,,,0.00,,2013-01-19 09:12:00,
2013-01-19 04:23:00,8.0,5.0,30.46,NNE,28,0.0,0.0,86,0.00,,,0.00,,2013-01-19 09:23:00,
2013-01-19 04:33:00,8.0,5.0,30.45,WNW,299,0.0,0.0,87,0.00,,,0.00,,2013-01-19 09:33:00,
2013-01-19 04:43:00,8.0,5.0,30.45,WNW,299,0.0,0.0,87,0.00,,,0.00,,2013-01-19 09:43:00,
2013-01-19 04:52:00,8.0,5.0,30.45,WNW,299,0.0,0.0,87,0.00,,,0.00,,2013-01-19 09:52:00,
2013-01-19 05:02:00,8.0,5.0,30.45,WNW,299,0.0,0.0,87,0.00,,,0.00,,2013-01-19 10:02:00,
2013-01-19 05:12:00,8.0,5.0,30.45,WNW,299,0.0,0.0,87,0.00,,,0.00,,2013-01-19 10:12:00,
2013-01-19 05:23:00,9.0,6.0,30.43,WNW,300,0.0,0.0,87,0.00,,,0.00,,2013-01-19 10:23:00,
2013-01-19 05:33:00,9.0,6.0,30.43,WNW,300,0.0,0.0,88,0.00,,,0.00,,2013-01-19 10:33:00,
2013-01-19 05:43:00,9.0,6.0,30.43,WNW,300,0.0,0.0,88,0.00,,,0.00,,2013-01-19 10:43:00,
2013-01-19 05:52:00,9.0,6.0,30.42,WNW,299,0.0,0.0,88,0.00,,,0.00,,2013-01-19 10:52:00,
2013-01-19 06:03:00,9.0,6.0,30.41,WNW,299,0.0,0.0,88,0.00,,,0.00,,2013-01-19 11:03:00,
2013-01-19 06:12:00,9.0,6.0,30.41,WNW,299,0.0,0.0,88,0.00,,,0.00,,2013-01-19 11:12:00,
2013-01-19 07:48:00,11.0,8.0,30.39,ENE,63,0.0,0.0,89,0.00,,,0.00,,2013-01-19 12:48:00,
2013-01-19 07:53:00,11.0,8.0,30.38,ENE,63,0.0,0.0,89,0.00,,,0.00,,2013-01-19 12:53:00,
2013-01-19 08:03:00,11.0,8.0,30.38,ENE,68,0.0,0.0,89,0.00,,,0.00,,2013-01-19 13:03:00,
2013-01-19 08:13:00,11.0,8.0,30.38,ENE,68,0.0,0.0,89,0.00,,,0.00,,2013-01-19 13:13:00,
2013-01-19 08:23:00,12.0,9.0,30.37,ENE,68,0.0,0.0,88,0.00,,,0.00,,2013-01-19 13:23:00,
2013-01-19 08:34:00,12.0,9.0,30.37,ENE,68,0.0,0.0,88,0.00,,,0.00,,2013-01-19 13:34:00,
2013-01-19 08:43:00,12.0,9.0,30.37,ENE,68,0.0,0.0,88,0.00,,,0.00,,2013-01-19 13:43:00,
2013-01-19 08:53:00,12.0,9.0,30.37,East,94,0.0,1.0,88,0.00,,,0.00,,2013-01-19 13:53:00,
2013-01-19 09:03:00,13.0,10.0,30.37,East,94,0.0,0.0,88,0.00,,,0.00,,2013-01-19 14:03:00,
2013-01-19 09:13:00,13.0,10.0,30.37,East,94,0.0,0.0,88,0.00,,,0.00,,2013-01-19 14:13:00,
2013-01-19 09:23:00,15.0,12.0,30.36,East,94,0.0,0.0,86,0.00,,,0.00,,2013-01-19 14:23:00,
2013-01-19 09:34:00,16.0,12.0,30.36,North,10,0.0,0.0,84,0.00,,,0.00,,2013-01-19 14:34:00,
2013-01-19 09:43:00,16.0,12.0,30.36,North,10,0.0,0.0,84,0.00,,,0.00,,2013-01-19 14:43:00,
2013-01-19 09:53:00,16.0,12.0,30.35,NNE,15,0.0,0.0,84,0.00,,,0.00,,2013-01-19 14:53:00,
2013-01-19 10:03:00,19.0,14.0,30.35,NNE,25,0.0,0.0,81,0.00,,,0.00,,2013-01-19 15:03:00,
2013-01-19 10:13:00,19.0,14.0,30.35,NNE,25,0.0,0.0,81,0.00,,,0.00,,2013-01-19 15:13:00,
2013-01-19 10:23:00,20.0,15.0,30.34,SW,226,0.0,1.0,80,0.00,,,0.00,,2013-01-19 15:23:00,
2013-01-19 10:33:00,20.0,15.0,30.33,NE,46,0.0,1.0,80,0.00,,,0.00,,2013-01-19 15:33:00,
2013-01-19 10:43:00,20.0,15.0,30.33,NE,46,0.0,1.0,80,0.00,,,0.00,,2013-01-19 15:43:00,
2013-01-19 10:53:00,22.0,17.0,30.32,WNW,302,0.0,1.0,80,0.00,,,0.00,,2013-01-19 15:53:00,
2013-01-19 11:03:00,23.0,17.0,30.31,SSW,193,0.0,2.0,78,0.00,,,0.00,,2013-01-19 16:03:00,
2013-01-19 11:13:00,23.0,17.0,30.31,SSW,193,0.0,2.0,78,0.00,,,0.00,,2013-01-19 16:13:00,
2013-01-19 11:23:00,24.0,18.0,30.30,West,281,0.0,4.0,77,0.00,,,0.00,,2013-01-19 16:23:00,
2013-01-19 11:33:00,24.0,18.0,30.29,NE,34,0.0,2.0,76,0.00,,,0.00,,2013-01-19 16:33:00,
2013-01-19 11:43:00,24.0,18.0,30.29,NE,34,0.0,2.0,76,0.00,,,0.00,,2013-01-19 16:43:00,
2013-01-19 11:53:00,25.0,19.0,30.27,NE,39,0.0,2.0,76,0.00,,,0.00,,2013-01-19 16:53:00,
2013-01-19 12:03:00,25.0,19.0,30.26,NE,54,0.0,3.0,76,0.00,,,0.00,,2013-01-19 17:03:00,
2013-01-19 12:21:00,25.0,19.0,30.26,NE,54,0.0,3.0,76,0.00,,,0.00,,2013-01-19 17:21:00,
2013-01-19 12:29:00,25.0,19.0,30.24,NE,47,0.0,2.0,76,0.00,,,0.00,,2013-01-19 17:29:00,
2013-01-19 12:37:00,26.0,19.0,30.23,NNE,32,0.0,2.0,74,0.00,,,0.00,,2013-01-19 17:37:00,
2013-01-19 12:49:00,26.0,19.0,30.23,NNE,32,0.0,2.0,74,0.00,,,0.00,,2013-01-19 17:49:00,
2013-01-19 12:54:00,27.0,20.0,30.22,NE,39,0.0,2.0,73,0.00,,,0.00,,2013-01-19 17:54:00,
2013-01-19 13:13:00,29.0,20.0,30.22,NE,41,0.0,3.0,70,0.00,,,0.00,,2013-01-19 18:13:00,
2013-01-19 13:37:00,30.0,21.0,30.21,NW,315,0.0,1.0,68,0.00,,,0.00,,2013-01-19 18:37:00,
2013-01-19 13:45:00,30.0,21.0,30.21,NW,315,0.0,1.0,68,0.00,,,0.00,,2013-01-19 18:45:00,
2013-01-19 13:55:00,30.0,21.0,30.20,NNE,20,0.0,2.0,68,0.00,,,0.00,,2013-01-19 18:55:00,
2013-01-19 14:10:00,30.0,21.0,30.20,NNE,20,0.0,2.0,68,0.00,,,0.00,,2013-01-19 19:10:00,
2013-01-19 14:21:00,30.0,21.0,30.20,NNE,20,0.0,2.0,68,0.00,,,0.00,,2013-01-19 19:21:00,
2013-01-19 14:40:00,31.0,23.0,30.19,SSW,205,1.0,3.0,71,0.00,,,0.00,,2013-01-19 19:40:00,
2013-01-19 14:48:00,31.0,23.0,30.19,SSW,205,1.0,3.0,71,0.00,,,0.00,,2013-01-19 19:48:00,
2013-01-19 14:54:00,31.0,23.0,30.19,South,188,0.0,3.0,73,0.00,,,0.00,,2013-01-19 19:54:00,
2013-01-19 15:20:00,31.0,23.0,30.19,NE,41,0.0,2.0,73,0.00,,,0.00,,2013-01-19 20:20:00,
2013-01-19 15:39:00,31.0,22.0,30.19,North,5,0.0,1.0,70,0.00,,,0.00,,2013-01-19 20:39:00,
2013-01-19 15:49:00,31.0,22.0,30.19,North,5,0.0,1.0,70,0.00,,,0.00,,2013-01-19 20:49:00,
2013-01-19 15:54:00,31.0,22.0,30.19,North,5,0.0,1.0,70,0.00,,,0.00,,2013-01-19 20:54:00,
2013-01-19 16:09:00,31.0,25.0,30.18,NE,43,0.0,0.0,78,0.00,,,0.00,,2013-01-19 21:09:00,
2013-01-19 16:15:00,31.0,25.0,30.18,NE,43,0.0,0.0,78,0.00,,,0.00,,2013-01-19 21:15:00,
2013-01-19 16:29:00,30.0,25.0,30.18,ESE,117,0.0,0.0,80,0.00,,,0.00,,2013-01-19 21:29:00,
2013-01-19 16:46:00,30.0,25.0,30.18,SW,232,0.0,1.0,82,0.00,,,0.00,,2013-01-19 21:46:00,
2013-01-19 16:51:00,30.0,25.0,30.18,SW,232,0.0,1.0,82,0.00,,,0.00,,2013-01-19 21:51:00,
2013-01-19 16:57:00,29.0,25.0,30.17,WNW,287,0.0,1.0,86,0.00,,,0.00,,2013-01-19 21:57:00,
2013-01-19 17:15:00,29.0,26.0,30.17,ENE,72,0.0,2.0,87,0.00,,,0.00,,2013-01-19 22:15:00,
2013-01-19 17:28:00,29.0,26.0,30.17,WNW,292,0.0,2.0,88,0.00,,,0.00,,2013-01-19 22:28:00,
2013-01-19 17:35:00,29.0,26.0,30.18,WNW,295,0.0,2.0,89,0.00,,,0.00,,2013-01-19 22:35:00,
2013-01-19 17:48:00,29.0,26.0,30.18,WNW,295,0.0,2.0,89,0.00,,,0.00,,2013-01-19 22:48:00,
2013-01-19 17:55:00,28.0,25.0,30.18,WNW,299,2.0,4.0,90,0.00,,,0.00,,2013-01-19 22:55:00,
2013-01-19 18:14:00,29.0,26.0,30.18,East,79,1.0,2.0,90,0.00,,,0.00,,2013-01-19 23:14:00,
2013-01-19 18:27:00,29.0,26.0,30.18,ENE,62,0.0,3.0,89,0.00,,,0.00,,2013-01-19 23:27:00,
2013-01-19 18:35:00,29.0,26.0,30.18,East,96,0.0,3.0,89,0.00,,,0.00,,2013-01-19 23:35:00,
2013-01-19 18:47:00,29.0,26.0,30.18,East,96,0.0,3.0,89,0.00,,,0.00,,2013-01-19 23:47:00,
2013-01-19 19:00:00,28.0,25.0,30.18,ENE,65,0.0,2.0,89,0.00,,,0.00,,2013-01-20 00:00:00,
2013-01-19 19:09:00,28.0,26.0,30.19,ENE,73,0.0,0.0,91,0.00,,,0.00,,2013-01-20 00:09:00,
2013-01-19 19:16:00,28.0,26.0,30.19,ENE,73,0.0,0.0,91,0.00,,,0.00,,2013-01-20 00:16:00,
2013-01-19 19:26:00,28.0,26.0,30.19,East,82,0.0,0.0,91,0.00,,,0.00,,2013-01-20 00:26:00,
2013-01-19 19:47:00,28.0,26.0,30.19,ENE,73,0.0,0.0,91,0.00,,,0.00,,2013-01-20 00:47:00,
2013-01-19 19:54:00,27.0,25.0,30.18,East,91,0.0,0.0,91,0.00,,,0.00,,2013-01-20 00:54:00,
2013-01-19 20:04:00,27.0,25.0,30.18,East,98,0.0,1.0,92,0.00,,,0.00,,2013-01-20 01:04:00,
2013-01-19 20:21:00,27.0,25.0,30.18,East,98,0.0,1.0,92,0.00,,,0.00,,2013-01-20 01:21:00,
2013-01-19 20:28:00,27.0,25.0,30.19,East,97,0.0,0.0,92,0.00,,,0.00,,2013-01-20 01:28:00,
2013-01-19 20:38:00,27.0,25.0,30.18,East,82,0.0,1.0,92,0.00,,,0.00,,2013-01-20 01:38:00,
2013-01-19 20:59:00,27.0,25.0,30.19,ENE,60,0.0,1.0,93,0.00,,,0.00,,2013-01-20 01:59:00,
2013-01-19 21:09:00,26.0,24.0,30.18,ENE,58,0.0,1.0,93,0.00,,,0.00,,2013-01-20 02:09:00,
2013-01-19 21:15:00,26.0,24.0,30.18,ENE,58,0.0,1.0,93,0.00,,,0.00,,2013-01-20 02:15:00,
2013-01-19 21:27:00,26.0,24.0,30.17,NE,50,1.0,1.0,93,0.00,,,0.00,,2013-01-20 02:27:00,
2013-01-19 21:37:00,27.0,25.0,30.17,NE,55,1.0,2.0,93,0.00,,,0.00,,2013-01-20 02:37:00,
2013-01-19 21:45:00,27.0,25.0,30.17,NE,55,1.0,2.0,93,0.00,,,0.00,,2013-01-20 02:45:00,
2013-01-19 21:56:00,26.0,24.0,30.16,NNE,15,0.0,1.0,93,0.00,,,0.00,,2013-01-20 02:56:00,
2013-01-19 22:09:00,27.0,25.0,30.16,ENE,65,0.0,1.0,93,0.00,,,0.00,,2013-01-20 03:09:00,
2013-01-19 22:15:00,27.0,25.0,30.16,ENE,65,0.0,1.0,93,0.00,,,0.00,,2013-01-20 03:15:00,
2013-01-19 22:25:00,27.0,25.0,30.15,NNE,27,0.0,1.0,93,0.00,,,0.00,,2013-01-20 03:25:00,
2013-01-19 22:39:00,27.0,25.0,30.14,ENE,71,1.0,2.0,93,0.00,,,0.00,,2013-01-20 03:39:00,
2013-01-19 22:45:00,27.0,25.0,30.14,ENE,71,1.0,2.0,93,0.00,,,0.00,,2013-01-20 03:45:00,
2013-01-19 22:54:00,27.0,25.0,30.13,ENE,64,0.0,1.0,92,0.00,,,0.00,,2013-01-20 03:54:00,
2013-01-19 23:05:00,27.0,25.0,30.12,NNE,12,0.0,1.0,93,0.00,,,0.00,,2013-01-20 04:05:00,
2013-01-19 23:15:00,27.0,25.0,30.12,NNE,12,0.0,1.0,93,0.00,,,0.00,,2013-01-20 04:15:00,
2013-01-19 23:27:00,27.0,25.0,30.11,ENE,75,0.0,1.0,93,0.00,,,0.00,,2013-01-20 04:27:00,
2013-01-19 23:36:00,27.0,25.0,30.11,ENE,75,0.0,0.0,93,0.00,,,0.00,,2013-01-20 04:36:00,
2013-01-19 23:45:00,27.0,25.0,30.11,ENE,75,0.0,0.0,93,0.00,,,0.00,,2013-01-20 04:45:00,
2013-01-19 23:58:00,27.0,25.0,30.10,NE,41,0.0,2.0,93,0.00,,,0.00,,2013-01-20 04:58:00,